TimeCST,TemperatureF,Dew PointF,Humidity,Sea Level PressureIn,VisibilityMPH,Wind Direction,Wind SpeedMPH,Gust SpeedMPH,PrecipitationIn,Events,Conditions,WindDirDegrees,DateUTC
12:15 AM,35.6,15.8,44,30.30,10.0,Calm,Calm,-,N/A,,Clear,0,2013-02-28 06:15:00
12:35 AM,32.7,15.1,48,30.30,10.0,Calm,Calm,-,N/A,,Clear,0,2013-02-28 06:35:00
12:55 AM,31.1,14.4,50,30.30,10.0,SW,8.1,-,N/A,,Clear,220,2013-02-28 06:55:00
1:15 AM,30.6,14.5,51,30.31,10.0,SW,6.9,-,N/A,,Clear,230,2013-02-28 07:15:00
1:35 AM,31.1,15.1,52,30.31,10.0,SW,4.6,-,N/A,,Clear,220,2013-02-28 07:35:00
1:55 AM,31.5,14.9,50,30.32,10.0,SW,6.9,-,N/A,,Clear,230,2013-02-28 07:55:00
2:15 AM,31.1,14.7,51,30.32,10.0,WSW,5.8,-,N/A,,Clear,240,2013-02-28 08:15:00
2:35 AM,30.2,14.9,53,30.31,10.0,WSW,3.5,-,N/A,,Clear,250,2013-02-28 08:35:00
2:55 AM,30.7,15.3,53,30.31,10.0,West,4.6,-,N/A,,Clear,260,2013-02-28 08:55:00
3:15 AM,30.7,15.3,53,30.30,10.0,West,3.5,-,N/A,,Clear,270,2013-02-28 09:15:00
3:35 AM,30.0,14.9,53,30.30,10.0,Calm,Calm,-,N/A,,Clear,0,2013-02-28 09:35:00
3:55 AM,28.8,14.2,55,30.30,10.0,WNW,3.5,-,N/A,,Clear,290,2013-02-28 09:55:00
4:15 AM,27.9,15.4,60,30.29,10.0,WNW,4.6,-,N/A,,Clear,300,2013-02-28 10:15:00
4:35 AM,27.3,15.4,61,30.29,10.0,West,4.6,-,N/A,,Clear,270,2013-02-28 10:35:00
4:55 AM,26.4,14.0,59,30.29,10.0,West,4.6,-,N/A,,Clear,260,2013-02-28 10:55:00
5:15 AM,25.5,13.1,59,30.28,10.0,West,3.5,-,N/A,,Clear,260,2013-02-28 11:15:00
5:35 AM,25.3,13.1,60,30.30,10.0,Calm,Calm,-,N/A,,Clear,0,2013-02-28 11:35:00
5:55 AM,26.6,14.4,60,30.30,10.0,NNW,5.8,-,N/A,,Clear,330,2013-02-28 11:55:00
6:15 AM,27.0,13.6,57,30.30,10.0,North,3.5,-,N/A,,Clear,10,2013-02-28 12:15:00
6:35 AM,27.5,14.7,59,30.31,10.0,North,4.6,-,N/A,,Clear,360,2013-02-28 12:35:00
7:35 AM,26.8,15.8,63,30.31,10.0,NNW,3.5,-,N/A,,Clear,330,2013-02-28 13:35:00
7:55 AM,25.7,15.8,66,30.32,10.0,NW,3.5,-,N/A,,Clear,320,2013-02-28 13:55:00
8:15 AM,28.6,17.4,63,30.33,10.0,NNW,3.5,-,N/A,,Clear,330,2013-02-28 14:15:00
8:35 AM,30.9,17.6,58,30.34,10.0,Calm,Calm,-,N/A,,Clear,0,2013-02-28 14:35:00
8:55 AM,32.4,18.3,56,30.34,10.0,Calm,Calm,-,N/A,,Clear,0,2013-02-28 14:55:00
9:15 AM,34.3,18.9,53,30.35,10.0,Calm,Calm,-,N/A,,Clear,0,2013-02-28 15:15:00
9:35 AM,37.8,20.1,49,30.34,10.0,Calm,Calm,-,N/A,,Clear,0,2013-02-28 15:35:00
9:55 AM,40.1,20.3,45,30.35,10.0,Calm,Calm,-,N/A,,Clear,0,2013-02-28 15:55:00
10:35 AM,45.0,22.3,41,30.35,10.0,Calm,Calm,-,N/A,,Clear,0,2013-02-28 16:35:00
12:15 PM,-9999,-9999,N/A,-9999,-9999.0,North,-9999.0,-,N/A,,Unknown,0,2013-02-28 18:15:00
12:55 PM,52.9,17.1,24,30.31,10.0,NNW,3.5,-,0.03,,Clear,340,2013-02-28 18:55:00
1:55 PM,54.1,17.2,23,30.27,10.0,ENE,3.5,-,N/A,,Clear,70,2013-02-28 19:55:00
2:35 PM,55.8,17.6,22,30.25,10.0,West,5.8,-,N/A,,Clear,280,2013-02-28 20:35:00
2:55 PM,57.0,18.0,22,30.24,10.0,West,3.5,-,N/A,,Clear,270,2013-02-28 20:55:00
5:15 PM,57.0,14.0,18,30.23,10.0,Calm,Calm,-,N/A,,Clear,0,2013-02-28 23:15:00
6:15 PM,56.3,14.0,19,30.23,10.0,Calm,Calm,-,N/A,,Clear,0,2013-03-01 00:15:00
6:35 PM,55.9,14.2,19,30.23,10.0,Calm,Calm,-,N/A,,Clear,0,2013-03-01 00:35:00
7:15 PM,50.4,14.0,23,30.23,10.0,ESE,4.6,-,N/A,,Clear,120,2013-03-01 01:15:00
7:35 PM,48.0,13.1,25,30.23,10.0,East,5.8,-,N/A,,Clear,100,2013-03-01 01:35:00
8:35 PM,43.2,11.8,28,30.23,10.0,SE,6.9,-,N/A,,Clear,130,2013-03-01 02:35:00
9:35 PM,40.3,11.3,31,30.25,10.0,SSE,6.9,-,N/A,,Clear,160,2013-03-01 03:35:00
9:55 PM,39.7,11.1,31,30.26,10.0,Calm,Calm,-,N/A,,Clear,0,2013-03-01 03:55:00
10:35 PM,37.0,11.8,35,30.26,10.0,SSW,8.1,-,N/A,,Clear,210,2013-03-01 04:35:00
11:15 PM,35.2,11.1,37,30.26,10.0,SSW,9.2,-,N/A,,Clear,210,2013-03-01 05:15:00
11:35 PM,34.0,10.6,38,30.26,10.0,SSW,5.8,-,N/A,,Clear,210,2013-03-01 05:35:00
11:55 PM,32.5,10.9,41,30.25,10.0,SW,3.5,-,N/A,,Clear,220,2013-03-01 05:55:00